This is the latest recevied weather packets stored in our database for station/object DB0ROB-10. If no packets are shown the sender has not sent any weather packets the latest 10 day(s).
| Time | Temp. | Humidity | Pressure | Rain* | Wind** | Luminosity | Snow |
|---|---|---|---|---|---|---|---|
| 1777486574 | 11.67° C | 29% | 1020.5 hPa | - | - | - | - |
| 1777485674 | 12.22° C | 29% | 1020.2 hPa | - | - | - | - |
| 1777484773 | 12.78° C | 29% | 1020.3 hPa | - | - | - | - |
| 1777483873 | 12.78° C | 29% | 1020 hPa | - | - | - | - |
| 1777482972 | 13.33° C | 30% | 1019.9 hPa | - | - | - | - |
| 1777482072 | 13.33° C | 29% | 1019.9 hPa | - | - | - | - |
| 1777481172 | 13.33° C | 30% | 1019.8 hPa | - | - | - | - |
| 1777480272 | 13.89° C | 30% | 1020 hPa | - | - | - | - |
| 1777479371 | 13.89° C | 30% | 1019.8 hPa | - | - | - | - |
| 1777478471 | 14.44° C | 31% | 1019.8 hPa | - | - | - | - |
| 1777477570 | 14.44° C | 32% | 1019.6 hPa | - | - | - | - |
| 1777476670 | 15° C | 32% | 1019.5 hPa | - | - | - | - |
| 1777475769 | 15.56° C | 32% | 1019.4 hPa | - | - | - | - |
| 1777474869 | 15° C | 32% | 1019.5 hPa | - | - | - | - |
| 1777473969 | 15.56° C | 31% | 1019.4 hPa | - | - | - | - |
| 1777473069 | 16.11° C | 31% | 1019.6 hPa | - | - | - | - |
| 1777472168 | 16.11° C | 29% | 1019.4 hPa | - | - | - | - |
| 1777471268 | 15.56° C | 29% | 1019.7 hPa | - | - | - | - |
| 1777470373 | 15.56° C | 28% | 1019.6 hPa | - | - | - | - |
| 1777469473 | 15° C | 27% | 1019.6 hPa | - | - | - | - |
| 1777468572 | 15.56° C | 26% | 1019.6 hPa | - | - | - | - |
| 1777467672 | 15° C | 27% | 1019.6 hPa | - | - | - | - |
| 1777466771 | 15.56° C | 28% | 1019.7 hPa | - | - | - | - |
| 1777465871 | 15.56° C | 28% | 1019.6 hPa | - | - | - | - |
| 1777464970 | 15.56° C | 30% | 1019.5 hPa | - | - | - | - |
* Rain since midnight (hover to see other rain measurements)
** Current wind speed in m/s (hover to see current wind gust speed)